Hourly Data Report for August 29, 2021

LYNN LAKE
MANITOBA
Current Station Operator: NAVCAN

56°51'50.000" N
101°04'34.000" W
356.60 m
5061645
71078
YYL

Download Data

Hourly Data (August 2021)
Hourly Data Report for August 29, 2021
TIME
LST
Temp Definition
°C
Dew Point Definition
°C
Rel Hum Definition
%
Precip. Amount Definition
mm

Wind Dir Definition
10's deg

Wind Spd Definition
km/h
Visibility Definition
km
Stn Press Definition
kPa
Hmdx Definition


Wind Chill Definition


Weather Definition


00:00 10.4 9.3 93 0.0 34 5 16.1 96.95     LegendNANA
01:00 10.6 9.7 94 0.0 29 5 16.1 96.95     LegendNANA
02:00 8.4 8.4 100 0.0 27 5 16.1 96.96     LegendNANA
03:00 8.1 8.0 99 0.0 29 9 16.1 96.96     LegendNANA
04:00 9.0 8.8 98 0.0 31 11 16.1 96.96     LegendNANA
05:00 8.8 8.5 98 0.0 32 13 16.1 96.99     LegendNANA
06:00 8.9 8.3 96 0.0 31 9 16.1 97.01     LegendNANA
07:00 9.8 9.2 96 0.0 30 9 16.1 97.04     LegendNANA
08:00 12.5 10.9 90 0.0 LegendMM 4 16.1 97.03     LegendNANA
09:00 16.6 10.8 68 0.0 LegendMM 4 16.1 97.02     LegendNANA
10:00 18.7 10.1 57 0.0 33 8 16.1 97.01     LegendNANA
11:00 20.1 10.3 53 0.0 LegendMM 9 16.1 96.99     LegendNANA
12:00 21.0 10.3 50 0.0 23 5 16.1 96.97     LegendNANA
13:00 21.4 10.3 49 0.0 32 5 16.1 96.95     LegendNANA
14:00 21.0 10.6 51 0.0 29 8 16.1 96.94     LegendNANA
15:00 21.0 11.3 53 0.0 26 11 16.1 96.94     LegendNANA
16:00 21.6 10.3 48 0.0 30 8 16.1 96.92     LegendNANA
17:00 21.6 11.3 52 0.0 12 5 16.1 96.91     LegendNANA
18:00 21.0 11.2 53 0.0 29 11 16.1 96.91     LegendNANA
19:00 20.8 11.0 53 0.0 29 5 16.1 96.91     LegendNANA
20:00 16.7 11.7 72 0.0 23 8 16.1 96.92     LegendNANA
21:00 14.4 10.9 79 0.0 25 5 16.1 96.95     LegendNANA
22:00 12.6 10.1 85 0.0   0 16.1 96.98     LegendNANA
23:00 11.2 10.8 97 0.0 21 5 16.1 96.97     LegendNANA

Notes on Data Quality.

Legend

  • E = Estimated
  • M = Missing
  • NA = Not Available*
  • [empty] = Indicates an unobserved value
Date modified: